Location: Unspecified
(42.2600°N, 0.0000°E)
Time: 18:38:52
(UTC+00:00)

ISS - Pass Details

Date: 31 May 2019
Orbit: 407 x 418 km, 51.6° (Epoch: 25 June)

Event Time Altitude Azimuth Distance (km) Brightness Sun altitude
Rises 21:15:10 0° 306° (NW) 2,357 1.6 -15.6°
Reaches altitude 10° 21:17:18 10° 312° (NW) 1,494 0.3 -15.9°
Maximum altitude 21:20:36 51° 30° (NNE) 529 -3.2 -16.2°
Enters shadow 21:21:57 30° 91° (E) 785 -2.7 -16.4°
